SCP
0 0 0 0 0 0 0 -0 -0 -0 -0 -0 -0 -0 0 0 0 0 0 0 0 0 -0 -0 -0 -0 0 -0 -0 -0 -0 0 0 0 0 0 0 0 0 0 0 0 0 -0
-0 0 0 0 0 0 -0 -0 -0 -0 -0 -0 -0 -0 0 0 0 0 0 0 0 0 -0 -0 -0 -0 -0 -0 -0 -0 -0 0 0 0 0 0 0 0 0 0 0 0 0 -0
-0 0 0 -0 0 0 -0 -0 -0 -0 -0 -0 -0 -0 0 0 0 0 0 0 0 0 -0 -0 -0 -0 -0 -0 -0 -0 -0 0 -0 -0 -0 -0 -0 -0 0 0 0 0 -0 -0
0 0 -0 0 0 0 -0 -0 -0 -0 -0 -0 -0 -0 0 0 0 0 0 0 0 0 -0 -0 -0 -0 -0 -0 -0 -0 -0 -0 -0 -0 -0 -0 -0 0 0 0 0 0 0 -0
-0 -0 -0 -0 0 0 0 -0 -0 -0 -0 -0 -0 -0 -0 0 0 0 0 0 0 0 0 0 -0 -0 -0 -0 0 0 0 -0 -0 -0 -0 -0 0 -0 0 0 0 0 0 0
-0 0 0 -0 0 0 0 0 0 0 0 0 0 0 0 0 0 0 0 0 0 0 0 -0 -0 -0 -0 0 0 0 0 -0 -0 -0 -0 -0 -0 -0 -0 0 0 0 0 0
-0 0 -0 -0 0 0 0 0 0 0 0 0 0 0 0 0 0 0 0 0 0 0 0 0 -0 -0 -0 0 0 0 0 -0 -0 -0 -0 -0 -0 -0 0 0 0 0 0 0
0 0 0 -0 -0 0 0 0 0 0 0 0 0 0 0 0 0 0 0 0 0 0 -0 -0 0 -0 -0 0 -0 -0 0 -0 -0 -0 -0 -0 -0 0 -0 0 0 0 0 0
0 0 0 -0 -0 -0 0 0 0 0 0 0 0 0 0 0 0 0 0 0 0 0 0 0 -0 -0 0 -0 0 0 -0 0 0 -0 0 0 -0 -0 0 0 0 0 0 0
0 0 0 -0 0 0 0 0 0 0 0 0 0 0 0 0 0 -0 0 0 0 0 0 0 0 0 0 0 0 -0 -0 0 -0 0 0 0 0 0 0 0 0 0 0 0
0 0 0 0 -0 -0 0 0 0 0 0 0 0 0 0 0 0 0 0 0 0 0 0 0 0 0 0 0 0 0 0 0 0 0 0 0 0 0 0 0 0 0 0 0
0 -0 -0 -0 0 0 0 0 0 0 0 0 0 0 0 0 0 0 0 0 0 0 0 0 0 0 0 0 0 0 0 0 0 0 0 0 0 0 0 0 -0 0 0 0
0 -0 -0 -0 0 0 0 0 0 0 0 0 0 0 0 0 0 0 0 0 0 0 0 0 0 0 0 0 0 0 0 0 0 0 0 0 0 0 0 0 0 0 0 0
-0 -0 -0 -0 -0 0 0 0 0 0 0 0 0 0 0 0 0 0 0 0 0 0 0 0 0 0 0 0 0 0 0 0 0 0 0 0 0 0 0 0 0 0 0 0
-0 -0 -0 -0 -0 0 -0 0 0 0 0 0 0 0 0 0 0 0 0 0 0 0 0 0 0 0 0 0 0 0 0 0 0 0 0 0 0 0 0 0 0 0 0 0
-0 -0 -0 -0 -0 0 0 0 0 0 0 0 0 0 0 0 0 0 0 0 0 0 0 0 0 0 0 0 0 0 0 0 0 0 0 0 0 0 0 0 0 0 0 0
-0 0 0 -0 -0 0 -0 -0 0 0 0 0 0 0 0 0 0 0 0 0 0 0 0 0 0 0 0 0 0 -0 0 0 0 0 0 0 0 0 0 0 0 0 0 0
-0 -0 -0 -0 -0 -0 0 0 0 0 0 0 0 0 0 0 0 0 0 0 0 0 0 0 0 0 0 0 0 0 0 0 0 0 0 0 0 0 0 0 0 0 -0 0
-0 -0 -0 -0 -0 -0 0 0 0 0 0 0 0 0 0 0 0 0 0 0 0 0 0 0 0 0 0 0 0 0 0 0 0 0 0 0 0 0 0 0 0 0 0 0
-0 -0 -0 -0 -0 -0 -0 0 0 0 0 0 0 0 0 0 0 0 0 0 0 0 0 0 0 0 0 0 0 0 0 0 0 0 0 0 0 0 0 0 0 0 0 0
-0 -0 -0 -0 -0 -0 0 0 0 0 0 0 0 0 0 0 0 0 0 0 0 0 0 0 0 0 0 0 0 0 0 0 0 0 0 0 0 0 0 0 0 0 0 0
-0 -0 -0 -0 -0 -0 -0 0 -0 0 0 0 0 0 0 0 0 0 0 0 0 0 0 0 0 0 0 0 0 0 0 0 0 0 0 0 0 0 0 0 0 0 0 0
-0 0 0 0 0 -0 -0 -0 -0 -0 -0 0 0 0 0 0 0 0 0 0 0 0 0 0 0 0 0 0 0 0 0 0 0 0 0 0 0 0 0 0 0 0 0 0
0 0 0 0 0 0 -0 -0 -0 -0 -0 -0 0 0 0 0 0 0 0 0 0 0 0 0 0 0 0 0 0 0 0 0 0 0 0 0 0 0 0 0 0 0 0 0
0 0 0 0 0 0 -0 -0 -0 -0 -0 0 0 0 0 0 -0 0 0 0 0 0 0 0 0 0 0 0 0 0 0 0 0 0 0 0 0 0 0 0 0 0 0 0
0 0 0 0 0 -0 -0 -0 -0 -0 -0 0 0 -0 0 0 0 0 0 0 0 0 0 0 0 0 0 0 0 0 0 0 0 0 0 0 0 0 0 0 0 0 0 0
0 0 0 0 0 0 -0 -0 0 -0 -0 -0 0 0 0 0 0 0 0 0 0 0 0 0 0 0 0 0 0 0 0 0 0 0 0 0 0 0 0 0 0 0 0 0
Wind_Speed_500mb
15 21 16 15 26 25 31 25 15 7 5 32 29 29 36 45 42 22 27 35 43 52 55 57 58 57 54 49 43 39 38 31 25 21 16 13 19 20 29 29 16 10 7 1
22 20 23 27 34 32 31 38 32 29 30 32 38 41 34 38 42 33 43 49 47 48 57 63 62 60 54 50 43 42 39 32 25 17 12 14 19 21 36 25 14 13 9 3
9 10 8 22 32 43 35 28 27 28 22 30 27 24 16 35 40 36 50 57 55 55 61 63 62 61 57 50 47 43 36 29 24 19 16 25 28 35 29 21 15 12 7 1
7 3 6 13 20 24 30 22 30 15 30 24 20 45 57 49 33 36 48 55 55 56 59 58 60 57 52 50 49 39 30 25 20 18 22 28 31 29 26 20 16 12 9 2
6 7 17 23 4 10 9 10 19 30 33 25 44 41 21 16 24 35 41 49 51 53 55 55 56 52 50 52 45 36 29 24 22 20 24 27 29 29 26 17 18 13 7 2
6 7 8 2 5 22 20 14 6 7 14 20 18 9 7 18 20 29 31 39 48 51 52 52 53 51 52 49 42 32 26 23 22 19 26 24 23 23 19 16 12 13 9 5
16 8 12 10 16 17 11 2 17 17 23 24 12 13 12 26 26 23 25 25 44 50 54 51 53 54 51 46 41 32 27 20 21 18 24 23 19 20 16 14 16 16 12 6
7 9 12 24 24 9 8 14 20 24 19 23 27 17 15 31 30 26 12 27 44 56 57 53 54 55 51 45 36 33 28 23 19 25 26 23 16 15 15 12 14 16 13 9
5 5 15 33 36 58 65 41 16 16 20 15 3 19 30 22 35 32 14 30 50 58 60 58 58 54 51 42 39 35 28 27 25 25 23 20 17 11 11 11 9 11 13 13
6 7 15 31 62 23 25 48 33 39 25 17 19 32 41 37 40 43 33 48 50 61 61 60 56 55 46 38 40 37 33 28 25 23 20 19 15 10 11 5 5 4 10 15
8 10 21 24 55 41 58 55 58 50 38 30 30 38 43 37 26 26 28 41 53 63 60 60 52 52 48 40 42 40 34 33 28 24 19 13 14 12 8 8 9 9 6 9
6 22 19 22 45 50 61 55 55 52 45 38 44 47 40 43 35 21 16 25 42 53 58 56 51 50 49 43 41 43 37 34 32 27 23 16 12 17 16 11 12 12 13 11
8 22 20 15 33 37 37 46 44 50 49 46 40 49 53 47 40 33 30 34 43 46 46 50 52 50 50 46 42 44 34 29 35 33 26 20 16 23 18 16 9 9 10 10
39 23 19 26 23 30 24 24 33 35 45 41 45 45 52 50 41 34 29 22 22 30 32 39 46 49 49 45 42 41 37 29 29 34 31 24 17 18 20 16 7 4 10 10
36 30 25 34 43 41 35 33 35 27 34 39 40 44 45 49 51 52 38 31 30 36 40 38 39 42 47 49 43 41 39 34 30 38 34 30 21 20 19 16 7 4 14 11
26 32 30 38 45 47 41 34 28 28 25 22 29 37 42 41 47 55 57 42 26 35 31 34 40 39 47 46 49 46 38 34 28 30 37 38 32 25 22 21 16 11 10 14
28 33 30 32 39 40 37 26 21 17 30 27 25 33 34 36 38 45 52 55 55 43 32 25 24 32 40 42 42 45 42 39 35 32 30 36 38 34 27 24 21 19 17 15
23 25 26 22 34 36 40 40 30 24 25 25 22 26 33 36 39 39 42 42 47 44 40 42 27 13 25 35 37 38 39 36 37 37 34 31 37 39 34 28 27 23 21 21
16 20 22 23 30 36 38 40 39 24 10 12 20 30 30 35 36 35 29 33 40 42 45 40 32 24 21 12 24 35 31 37 31 33 37 40 38 39 41 36 29 27 27 28
15 19 23 26 29 36 38 38 34 32 24 17 21 27 29 29 30 31 32 34 42 38 29 23 24 26 31 25 10 17 20 29 31 30 30 35 40 43 43 45 41 33 30 29
11 13 18 24 27 33 38 39 37 38 35 27 32 30 28 26 21 21 24 30 32 29 27 24 21 18 22 31 26 23 15 17 20 22 25 26 28 30 34 40 44 48 49 49
14 14 14 17 21 26 30 34 39 41 48 45 37 29 24 23 26 25 20 18 17 15 17 22 27 26 23 15 27 32 30 28 21 12 7 10 19 20 22 24 28 35 41 45
11 11 8 11 12 20 24 28 34 42 47 49 53 55 47 41 35 31 29 24 16 14 17 21 22 21 21 24 26 26 30 30 32 33 25 22 23 18 13 9 5 4 11 22
20 19 12 14 14 13 19 24 27 36 44 48 48 49 52 56 53 43 35 26 23 23 25 26 21 21 26 33 37 38 39 40 33 29 26 22 21 22 24 24 24 21 18 17
21 21 19 16 12 13 16 20 24 29 33 39 43 46 50 51 56 55 52 41 37 32 28 25 24 25 32 36 37 38 40 41 38 35 32 31 30 27 25 21 18 20 20 19
28 23 19 12 4 9 14 15 19 23 22 29 35 36 37 39 44 48 52 54 57 57 54 49 43 39 39 40 40 41 41 40 38 36 34 33 32 31 29 27 24 24 25 24
31 26 27 26 18 11 13 12 14 20 19 20 26 29 31 33 37 45 48 54 58 60 61 60 59 60 61 61 61 59 55 52 48 46 44 42 38 35 33 31 30 30 30 31
Wind_Direction_500mb
261 273 279 256 266 276 270 253 254 311 269 286 309 311 300 310 313 202 178 175 175 169 166 166 165 164 164 162 159 153 146 141 143 157 160 156 158 164 166 161 155 134 134 54
287 259 250 264 264 250 255 254 259 258 270 279 275 281 282 307 313 204 187 178 184 182 170 169 169 168 168 165 159 152 160 169 174 167 170 168 163 169 161 159 153 160 161 80
255 242 300 274 253 250 248 225 218 234 245 260 275 277 282 308 302 211 194 186 187 183 180 174 174 172 170 166 162 165 178 184 182 179 181 169 158 154 160 159 167 178 189 91
264 11 258 247 314 297 231 224 219 231 243 250 284 285 286 288 266 215 195 191 187 184 186 178 173 172 169 169 173 182 190 194 184 169 172 168 174 173 178 175 181 181 211 276
235 213 286 290 24 11 347 278 238 239 261 269 286 298 262 241 240 209 196 194 189 188 188 180 173 171 170 174 183 189 196 196 186 168 165 157 162 173 177 175 181 201 221 249
171 237 266 241 31 342 323 260 185 242 272 270 294 224 246 168 169 166 175 199 192 190 187 183 178 171 170 177 188 196 188 189 183 172 171 168 173 179 186 193 200 207 216 250
226 252 278 47 333 313 235 224 322 322 290 285 245 223 196 158 128 139 177 194 198 191 187 178 176 175 178 185 193 186 183 186 181 169 168 168 178 192 205 211 211 213 214 220
215 227 251 7 325 232 10 314 321 304 285 279 282 251 194 194 199 160 126 196 207 192 188 179 179 179 184 186 180 184 182 176 167 162 166 179 188 193 208 221 207 208 201 191
263 306 315 301 271 277 274 267 320 315 347 322 309 113 120 165 160 150 289 215 209 199 192 194 191 188 188 186 189 194 187 178 157 159 178 193 200 212 218 190 189 202 194 182
305 232 286 322 315 347 55 43 37 45 29 61 67 103 114 141 163 208 233 206 204 205 198 198 198 199 194 187 190 195 193 184 169 168 181 201 209 236 218 176 170 170 181 185
258 270 335 352 342 18 41 44 51 47 39 45 67 89 106 111 147 178 203 198 204 207 201 200 197 203 198 192 190 196 194 196 188 181 188 204 203 185 159 119 94 67 96 156
334 347 343 8 357 28 31 29 39 26 29 34 63 71 91 91 95 114 141 184 202 210 205 200 198 201 196 191 191 194 200 203 200 194 191 193 186 168 151 131 118 99 89 106
306 336 17 360 24 38 29 13 30 32 32 28 59 69 69 66 75 94 141 161 187 199 205 201 198 198 194 193 195 201 206 206 205 208 199 192 181 176 164 146 135 101 105 111
30 37 24 35 36 53 66 31 33 12 26 32 59 70 80 78 79 76 86 114 163 185 189 197 198 199 197 198 199 205 210 208 207 212 209 201 187 178 188 174 176 174 160 135
38 49 52 62 50 46 44 42 36 359 4 29 51 63 75 81 79 77 81 100 133 160 163 173 189 201 202 206 206 208 212 216 219 222 219 214 199 186 180 188 204 164 172 167
47 57 50 50 45 38 38 46 45 17 8 22 57 68 73 75 74 75 79 82 106 114 140 166 182 195 207 205 212 213 215 218 219 225 227 223 216 209 201 203 209 203 202 197
67 56 49 51 45 36 41 44 44 37 35 26 54 72 75 80 87 78 74 80 79 82 94 137 163 193 212 213 210 215 220 219 221 225 231 236 230 225 222 219 216 222 226 232
83 71 57 72 63 47 37 41 45 43 42 29 58 84 95 87 80 82 78 81 88 87 81 66 68 128 202 215 218 219 220 224 227 228 234 240 242 239 235 234 229 226 234 241
72 60 59 75 62 58 45 39 43 47 72 81 84 80 87 86 81 84 85 85 83 81 77 74 67 73 92 166 220 221 219 224 230 238 244 245 248 251 245 241 239 233 239 249
96 79 89 92 68 54 50 44 44 52 62 95 107 98 93 91 84 80 78 75 70 67 66 76 82 83 85 95 136 197 208 215 223 232 242 253 260 261 256 252 251 251 249 255
114 71 90 96 77 51 41 47 50 54 57 81 93 95 88 79 88 85 88 81 73 68 64 70 79 87 97 96 109 115 144 163 196 216 234 245 252 259 263 263 263 263 265 267
154 127 112 110 90 74 56 53 55 61 61 64 79 99 104 93 82 80 75 76 75 73 63 74 74 69 75 111 109 111 123 123 121 135 130 193 211 219 232 243 251 256 259 263
179 159 127 115 95 74 65 65 64 65 67 64 64 68 71 75 76 79 75 69 77 85 80 78 75 83 82 84 96 120 114 109 99 91 96 112 122 131 138 131 150 240 267 266
173 179 174 151 132 94 80 82 74 72 69 68 70 71 70 69 69 68 69 72 88 90 85 80 77 82 90 93 93 91 93 91 87 93 99 101 101 98 93 90 86 79 71 66
194 184 185 171 146 107 87 85 82 81 78 78 77 75 74 75 73 73 75 78 84 87 89 85 84 85 86 86 87 88 87 87 87 88 89 87 83 82 79 73 63 56 49 41
203 203 207 200 155 101 92 98 96 89 81 85 88 85 80 77 79 77 76 78 79 80 80 80 79 80 80 82 81 81 83 83 81 76 71 70 66 62 58 51 43 35 29 23
202 198 195 184 174 142 121 109 114 111 102 95 94 90 84 81 81 84 84 80 75 75 76 77 77 77 77 78 78 77 76 75 71 69 65 62 59 54 47 38 28 19 11 4
Wind_Speed_850mb
15 21 16 15 26 25 31 25 15 7 5 32 29 29 36 45 42 22 27 35 43 52 55 57 58 57 54 49 43 39 38 31 25 21 16 13 19 20 29 29 16 10 7 1
22 20 23 27 34 32 31 38 32 29 30 32 38 41 34 38 42 33 43 49 47 48 57 63 62 60 54 50 43 42 39 32 25 17 12 14 19 21 36 25 14 13 9 3
9 10 8 22 32 43 35 28 27 28 22 30 27 24 16 35 40 36 50 57 55 55 61 63 62 61 57 50 47 43 36 29 24 19 16 25 28 35 29 21 15 12 7 1
7 3 6 13 20 24 30 22 30 15 30 24 20 45 57 49 33 36 48 55 55 56 59 58 60 57 52 50 49 39 30 25 20 18 22 28 31 29 26 20 16 12 9 2
6 7 17 23 4 10 9 10 19 30 33 25 44 41 21 16 24 35 41 49 51 53 55 55 56 52 50 52 45 36 29 24 22 20 24 27 29 29 26 17 18 13 7 2
6 7 8 2 5 22 20 14 6 7 14 20 18 9 7 18 20 29 31 39 48 51 52 52 53 51 52 49 42 32 26 23 22 19 26 24 23 23 19 16 12 13 9 5
16 8 12 10 16 17 11 2 17 17 23 24 12 13 12 26 26 23 25 25 44 50 54 51 53 54 51 46 41 32 27 20 21 18 24 23 19 20 16 14 16 16 12 6
7 9 12 24 24 9 8 14 20 24 19 23 27 17 15 31 30 26 12 27 44 56 57 53 54 55 51 45 36 33 28 23 19 25 26 23 16 15 15 12 14 16 13 9
5 5 15 33 36 58 65 41 16 16 20 15 3 19 30 22 35 32 14 30 50 58 60 58 58 54 51 42 39 35 28 27 25 25 23 20 17 11 11 11 9 11 13 13
6 7 15 31 62 23 25 48 33 39 25 17 19 32 41 37 40 43 33 48 50 61 61 60 56 55 46 38 40 37 33 28 25 23 20 19 15 10 11 5 5 4 10 15
8 10 21 24 55 41 58 55 58 50 38 30 30 38 43 37 26 26 28 41 53 63 60 60 52 52 48 40 42 40 34 33 28 24 19 13 14 12 8 8 9 9 6 9
6 22 19 22 45 50 61 55 55 52 45 38 44 47 40 43 35 21 16 25 42 53 58 56 51 50 49 43 41 43 37 34 32 27 23 16 12 17 16 11 12 12 13 11
8 22 20 15 33 37 37 46 44 50 49 46 40 49 53 47 40 33 30 34 43 46 46 50 52 50 50 46 42 44 34 29 35 33 26 20 16 23 18 16 9 9 10 10
39 23 19 26 23 30 24 24 33 35 45 41 45 45 52 50 41 34 29 22 22 30 32 39 46 49 49 45 42 41 37 29 29 34 31 24 17 18 20 16 7 4 10 10
36 30 25 34 43 41 35 33 35 27 34 39 40 44 45 49 51 52 38 31 30 36 40 38 39 42 47 49 43 41 39 34 30 38 34 30 21 20 19 16 7 4 14 11
26 32 30 38 45 47 41 34 28 28 25 22 29 37 42 41 47 55 57 42 26 35 31 34 40 39 47 46 49 46 38 34 28 30 37 38 32 25 22 21 16 11 10 14
28 33 30 32 39 40 37 26 21 17 30 27 25 33 34 36 38 45 52 55 55 43 32 25 24 32 40 42 42 45 42 39 35 32 30 36 38 34 27 24 21 19 17 15
23 25 26 22 34 36 40 40 30 24 25 25 22 26 33 36 39 39 42 42 47 44 40 42 27 13 25 35 37 38 39 36 37 37 34 31 37 39 34 28 27 23 21 21
16 20 22 23 30 36 38 40 39 24 10 12 20 30 30 35 36 35 29 33 40 42 45 40 32 24 21 12 24 35 31 37 31 33 37 40 38 39 41 36 29 27 27 28
15 19 23 26 29 36 38 38 34 32 24 17 21 27 29 29 30 31 32 34 42 38 29 23 24 26 31 25 10 17 20 29 31 30 30 35 40 43 43 45 41 33 30 29
11 13 18 24 27 33 38 39 37 38 35 27 32 30 28 26 21 21 24 30 32 29 27 24 21 18 22 31 26 23 15 17 20 22 25 26 28 30 34 40 44 48 49 49
14 14 14 17 21 26 30 34 39 41 48 45 37 29 24 23 26 25 20 18 17 15 17 22 27 26 23 15 27 32 30 28 21 12 7 10 19 20 22 24 28 35 41 45
11 11 8 11 12 20 24 28 34 42 47 49 53 55 47 41 35 31 29 24 16 14 17 21 22 21 21 24 26 26 30 30 32 33 25 22 23 18 13 9 5 4 11 22
20 19 12 14 14 13 19 24 27 36 44 48 48 49 52 56 53 43 35 26 23 23 25 26 21 21 26 33 37 38 39 40 33 29 26 22 21 22 24 24 24 21 18 17
21 21 19 16 12 13 16 20 24 29 33 39 43 46 50 51 56 55 52 41 37 32 28 25 24 25 32 36 37 38 40 41 38 35 32 31 30 27 25 21 18 20 20 19
28 23 19 12 4 9 14 15 19 23 22 29 35 36 37 39 44 48 52 54 57 57 54 49 43 39 39 40 40 41 41 40 38 36 34 33 32 31 29 27 24 24 25 24
31 26 27 26 18 11 13 12 14 20 19 20 26 29 31 33 37 45 48 54 58 60 61 60 59 60 61 61 61 59 55 52 48 46 44 42 38 35 33 31 30 30 30 31
Wind_Direction_850mb
261 273 279 256 266 276 270 253 254 311 269 286 309 311 300 310 313 202 178 175 175 169 166 166 165 164 164 162 159 153 146 141 143 157 160 156 158 164 166 161 155 134 134 54
287 259 250 264 264 250 255 254 259 258 270 279 275 281 282 307 313 204 187 178 184 182 170 169 169 168 168 165 159 152 160 169 174 167 170 168 163 169 161 159 153 160 161 80
255 242 300 274 253 250 248 225 218 234 245 260 275 277 282 308 302 211 194 186 187 183 180 174 174 172 170 166 162 165 178 184 182 179 181 169 158 154 160 159 167 178 189 91
264 11 258 247 314 297 231 224 219 231 243 250 284 285 286 288 266 215 195 191 187 184 186 178 173 172 169 169 173 182 190 194 184 169 172 168 174 173 178 175 181 181 211 276
235 213 286 290 24 11 347 278 238 239 261 269 286 298 262 241 240 209 196 194 189 188 188 180 173 171 170 174 183 189 196 196 186 168 165 157 162 173 177 175 181 201 221 249
171 237 266 241 31 342 323 260 185 242 272 270 294 224 246 168 169 166 175 199 192 190 187 183 178 171 170 177 188 196 188 189 183 172 171 168 173 179 186 193 200 207 216 250
226 252 278 47 333 313 235 224 322 322 290 285 245 223 196 158 128 139 177 194 198 191 187 178 176 175 178 185 193 186 183 186 181 169 168 168 178 192 205 211 211 213 214 220
215 227 251 7 325 232 10 314 321 304 285 279 282 251 194 194 199 160 126 196 207 192 188 179 179 179 184 186 180 184 182 176 167 162 166 179 188 193 208 221 207 208 201 191
263 306 315 301 271 277 274 267 320 315 347 322 309 113 120 165 160 150 289 215 209 199 192 194 191 188 188 186 189 194 187 178 157 159 178 193 200 212 218 190 189 202 194 182
305 232 286 322 315 347 55 43 37 45 29 61 67 103 114 141 163 208 233 206 204 205 198 198 198 199 194 187 190 195 193 184 169 168 181 201 209 236 218 176 170 170 181 185
258 270 335 352 342 18 41 44 51 47 39 45 67 89 106 111 147 178 203 198 204 207 201 200 197 203 198 192 190 196 194 196 188 181 188 204 203 185 159 119 94 67 96 156
334 347 343 8 357 28 31 29 39 26 29 34 63 71 91 91 95 114 141 184 202 210 205 200 198 201 196 191 191 194 200 203 200 194 191 193 186 168 151 131 118 99 89 106
306 336 17 360 24 38 29 13 30 32 32 28 59 69 69 66 75 94 141 161 187 199 205 201 198 198 194 193 195 201 206 206 205 208 199 192 181 176 164 146 135 101 105 111
30 37 24 35 36 53 66 31 33 12 26 32 59 70 80 78 79 76 86 114 163 185 189 197 198 199 197 198 199 205 210 208 207 212 209 201 187 178 188 174 176 174 160 135
38 49 52 62 50 46 44 42 36 359 4 29 51 63 75 81 79 77 81 100 133 160 163 173 189 201 202 206 206 208 212 216 219 222 219 214 199 186 180 188 204 164 172 167
47 57 50 50 45 38 38 46 45 17 8 22 57 68 73 75 74 75 79 82 106 114 140 166 182 195 207 205 212 213 215 218 219 225 227 223 216 209 201 203 209 203 202 197
67 56 49 51 45 36 41 44 44 37 35 26 54 72 75 80 87 78 74 80 79 82 94 137 163 193 212 213 210 215 220 219 221 225 231 236 230 225 222 219 216 222 226 232
83 71 57 72 63 47 37 41 45 43 42 29 58 84 95 87 80 82 78 81 88 87 81 66 68 128 202 215 218 219 220 224 227 228 234 240 242 239 235 234 229 226 234 241
72 60 59 75 62 58 45 39 43 47 72 81 84 80 87 86 81 84 85 85 83 81 77 74 67 73 92 166 220 221 219 224 230 238 244 245 248 251 245 241 239 233 239 249
96 79 89 92 68 54 50 44 44 52 62 95 107 98 93 91 84 80 78 75 70 67 66 76 82 83 85 95 136 197 208 215 223 232 242 253 260 261 256 252 251 251 249 255
114 71 90 96 77 51 41 47 50 54 57 81 93 95 88 79 88 85 88 81 73 68 64 70 79 87 97 96 109 115 144 163 196 216 234 245 252 259 263 263 263 263 265 267
154 127 112 110 90 74 56 53 55 61 61 64 79 99 104 93 82 80 75 76 75 73 63 74 74 69 75 111 109 111 123 123 121 135 130 193 211 219 232 243 251 256 259 263
179 159 127 115 95 74 65 65 64 65 67 64 64 68 71 75 76 79 75 69 77 85 80 78 75 83 82 84 96 120 114 109 99 91 96 112 122 131 138 131 150 240 267 266
173 179 174 151 132 94 80 82 74 72 69 68 70 71 70 69 69 68 69 72 88 90 85 80 77 82 90 93 93 91 93 91 87 93 99 101 101 98 93 90 86 79 71 66
194 184 185 171 146 107 87 85 82 81 78 78 77 75 74 75 73 73 75 78 84 87 89 85 84 85 86 86 87 88 87 87 87 88 89 87 83 82 79 73 63 56 49 41
203 203 207 200 155 101 92 98 96 89 81 85 88 85 80 77 79 77 76 78 79 80 80 80 79 80 80 82 81 81 83 83 81 76 71 70 66 62 58 51 43 35 29 23
202 198 195 184 174 142 121 109 114 111 102 95 94 90 84 81 81 84 84 80 75 75 76 77 77 77 77 78 78 77 76 75 71 69 65 62 59 54 47 38 28 19 11 4